When you browse on this site, cookies collect data to enhance your experience and personalize the content and advertising you see.
Visit our Privacy Policy to learn more. By continuing to use the site, you agree to this use of cookies and data.
  • In Hungary
  • List of Countries
  • For 7 days
  • Water Temperature
  • Weather Map
  • News
  • Weather Widgets
  • user-avatar
    Login

    Hourly Weather Ordino

    Today, 3 June, Wednesday

    Time Temperature Precipitation Wind Pressure Humidity
    00:00 +10°C° 0 mm 1 mps 631 mmHg 92%
    01:00 +10°C° 0 mm 1 mps 630 mmHg 92%
    02:00 +10°C° 0 mm 1 mps 630 mmHg 92%
    03:00 +10°C° 0 mm 1 mps 630 mmHg 92%
    04:00 +11°C° 0 mm 1 mps 630 mmHg 91%
    05:00 +12°C° 0 mm 1 mps 630 mmHg 89%
    06:00 +13°C° 0 mm 1 mps 630 mmHg 85%
    07:00 +14°C° 0.6 mm 1 mps 631 mmHg 81%
    08:00 +15°C° 0.6 mm 1 mps 631 mmHg 78%
    09:00 +16°C° 0.6 mm 1 mps 631 mmHg 74%
    10:00 +16°C° 1.1 mm 1 mps 631 mmHg 75%
    11:00 +16°C° 1.1 mm 1 mps 630 mmHg 76%
    12:00 +16°C° 1.1 mm 1 mps 630 mmHg 77%
    13:00 +16°C° 1.1 mm 1 mps 629 mmHg 79%
    14:00 +15°C° 1.1 mm 2 mps 629 mmHg 82%
    15:00 +15°C° 1.1 mm 2 mps 628 mmHg 84%
    16:00 +14°C° 0.8 mm 1 mps 628 mmHg 86%
    17:00 +14°C° 0.8 mm 1 mps 627 mmHg 88%
    18:00 +13°C° 0.8 mm 1 mps 627 mmHg 89%
    19:00 +12°C° 1.1 mm 1 mps 627 mmHg 92%
    20:00 +11°C° 1.1 mm 0 mps 627 mmHg 95%
    21:00 +10°C° 1.1 mm 0 mps 627 mmHg 98%
    22:00 +10°C° 0.3 mm 0 mps 626 mmHg 98%
    23:00 +11°C° 0.3 mm 1 mps 626 mmHg 98%

    Tomorrow, 4 June, Thursday

    Time Temperature Precipitation Wind Pressure Humidity
    00:00 +10°C° 0.3 mm 1 mps 626 mmHg 99%
    01:00 +10°C° 1.5 mm 1 mps 625 mmHg 99%
    02:00 +10°C° 1.5 mm 1 mps 625 mmHg 98%
    03:00 +9°C° 1.5 mm 1 mps 624 mmHg 98%
    04:00 +9°C° 4.6 mm 1 mps 624 mmHg 98%
    05:00 +8°C° 4.6 mm 1 mps 624 mmHg 98%
    06:00 +8°C° 4.6 mm 1 mps 623 mmHg 97%
    07:00 +8°C° 1 mm 1 mps 624 mmHg 95%
    08:00 +9°C° 1 mm 1 mps 624 mmHg 92%
    09:00 +9°C° 1 mm 1 mps 624 mmHg 90%
    10:00 +10°C° 0.2 mm 1 mps 624 mmHg 87%
    11:00 +9°C° 0.2 mm 2 mps 624 mmHg 83%
    12:00 +10°C° 0.2 mm 2 mps 624 mmHg 79%
    13:00 +9°C° 1 mm 2 mps 624 mmHg 83%
    14:00 +8°C° 1 mm 2 mps 623 mmHg 86%
    15:00 +8°C° 1 mm 2 mps 623 mmHg 90%
    16:00 +8°C° 0.5 mm 2 mps 623 mmHg 90%
    17:00 +7°C° 0.5 mm 2 mps 623 mmHg 90%
    18:00 +7°C° 0.5 mm 2 mps 623 mmHg 89%
    19:00 +7°C° 0.1 mm 2 mps 624 mmHg 91%
    20:00 +6°C° 0.1 mm 2 mps 624 mmHg 93%
    21:00 +5°C° 0.1 mm 2 mps 625 mmHg 94%
    22:00 +5°C° 0.1 mm 2 mps 625 mmHg 94%
    23:00 +5°C° 0.1 mm 2 mps 625 mmHg 94%

    Day after tomorrow, 5 June, Friday

    Time Temperature Precipitation Wind Pressure Humidity
    00:00 +5°C° 0.1 mm 2 mps 625 mmHg 95%
    01:00 +4°C° 0.1 mm 2 mps 626 mmHg 94%
    02:00 +4°C° 0.1 mm 2 mps 626 mmHg 94%
    03:00 +4°C° 0.1 mm 2 mps 626 mmHg 93%
    04:00 +4°C° 0 mm 2 mps 626 mmHg 92%
    05:00 +5°C° 0 mm 2 mps 626 mmHg 91%
    06:00 +5°C° 0 mm 2 mps 627 mmHg 90%
    07:00 +7°C° 0 mm 2 mps 628 mmHg 82%
    08:00 +8°C° 0 mm 2 mps 628 mmHg 74%
    09:00 +10°C° 0 mm 2 mps 629 mmHg 66%
    10:00 +12°C° 0 mm 2 mps 630 mmHg 61%
    11:00 +14°C° 0 mm 2 mps 630 mmHg 57%
    12:00 +16°C° 0 mm 2 mps 631 mmHg 52%
    13:00 +16°C° 0 mm 2 mps 631 mmHg 54%
    14:00 +16°C° 0 mm 2 mps 631 mmHg 57%
    15:00 +16°C° 0 mm 2 mps 631 mmHg 59%
    16:00 +15°C° 0 mm 2 mps 631 mmHg 66%
    17:00 +13°C° 0 mm 1 mps 630 mmHg 73%
    18:00 +12°C° 0 mm 1 mps 630 mmHg 80%
    19:00 +11°C° 0 mm 1 mps 630 mmHg 84%
    20:00 +10°C° 0 mm 1 mps 630 mmHg 89%
    21:00 +9°C° 0 mm 1 mps 630 mmHg 93%
    22:00 +9°C° 0 mm 1 mps 630 mmHg 93%
    23:00 +8°C° 0 mm 1 mps 630 mmHg 93%

    6 June, Saturday

    Time Temperature Precipitation Wind Pressure Humidity
    00:00 +8°C° 0 mm 1 mps 629 mmHg 94%
    01:00 +8°C° 0 mm 1 mps 629 mmHg 94%
    02:00 +7°C° 0 mm 1 mps 629 mmHg 94%
    03:00 +6°C° 0 mm 0 mps 629 mmHg 93%
    04:00 +7°C° 0 mm 0 mps 630 mmHg 91%
    05:00 +8°C° 0 mm 0 mps 630 mmHg 89%
    06:00 +10°C° 0 mm 0 mps 631 mmHg 86%
    07:00 +12°C° 0 mm 1 mps 631 mmHg 78%
    08:00 +14°C° 0 mm 1 mps 632 mmHg 69%
    09:00 +16°C° 0 mm 2 mps 633 mmHg 61%
    10:00 +16°C° 0.2 mm 2 mps 632 mmHg 63%
    11:00 +16°C° 0.2 mm 2 mps 632 mmHg 66%
    12:00 +16°C° 0.2 mm 2 mps 632 mmHg 69%
    13:00 +15°C° 0.7 mm 2 mps 631 mmHg 74%
    14:00 +15°C° 0.7 mm 2 mps 631 mmHg 79%
    15:00 +14°C° 0.7 mm 2 mps 630 mmHg 85%
    16:00 +14°C° 0.8 mm 1 mps 630 mmHg 87%
    17:00 +13°C° 0.8 mm 1 mps 630 mmHg 89%
    18:00 +13°C° 0.8 mm 1 mps 630 mmHg 90%
    19:00 +12°C° 1.5 mm 1 mps 630 mmHg 92%
    20:00 +11°C° 1.5 mm 1 mps 630 mmHg 94%
    21:00 +11°C° 1.5 mm 1 mps 630 mmHg 96%
    22:00 +10°C° 0.5 mm 1 mps 630 mmHg 96%
    23:00 +9°C° 0.5 mm 0 mps 629 mmHg 95%

    7 June, Sunday

    Time Temperature Precipitation Wind Pressure Humidity
    00:00 +9°C° 0.5 mm 0 mps 629 mmHg 95%
    01:00 +9°C° 0 mm 0 mps 629 mmHg 95%
    02:00 +9°C° 0 mm 0 mps 629 mmHg 95%
    03:00 +9°C° 0 mm 0 mps 629 mmHg 94%
    04:00 +9°C° 0.1 mm 0 mps 629 mmHg 94%
    05:00 +9°C° 0.1 mm 0 mps 630 mmHg 93%
    06:00 +9°C° 0.1 mm 0 mps 630 mmHg 93%
    07:00 +11°C° 0.7 mm 1 mps 630 mmHg 92%
    08:00 +11°C° 0.7 mm 1 mps 631 mmHg 91%
    09:00 +12°C° 0.7 mm 1 mps 631 mmHg 90%
    10:00 +12°C° 1.1 mm 1 mps 631 mmHg 90%
    11:00 +12°C° 1.1 mm 1 mps 631 mmHg 90%
    12:00 +13°C° 1.1 mm 1 mps 631 mmHg 90%
    13:00 +12°C° 1 mm 1 mps 631 mmHg 90%
    14:00 +12°C° 1 mm 1 mps 631 mmHg 90%
    15:00 +12°C° 1 mm 1 mps 631 mmHg 90%
    16:00 +11°C° 0.7 mm 1 mps 631 mmHg 91%
    17:00 +11°C° 0.7 mm 1 mps 631 mmHg 92%
    18:00 +10°C° 0.7 mm 1 mps 631 mmHg 93%
    19:00 +9°C° 0.2 mm 1 mps 631 mmHg 94%
    20:00 +9°C° 0.2 mm 1 mps 631 mmHg 95%
    21:00 +8°C° 0.2 mm 1 mps 631 mmHg 96%
    22:00 +8°C° 0.1 mm 1 mps 631 mmHg 96%
    23:00 +8°C° 0.1 mm 1 mps 631 mmHg 96%

    8 June, Monday

    Time Temperature Precipitation Wind Pressure Humidity
    00:00 +8°C° 0.1 mm 1 mps 632 mmHg 95%
    01:00 +8°C° 0.1 mm 1 mps 631 mmHg 96%
    02:00 +8°C° 0.1 mm 1 mps 631 mmHg 96%
    03:00 +7°C° 0.1 mm 1 mps 631 mmHg 97%
    04:00 +8°C° 0 mm 1 mps 631 mmHg 96%
    05:00 +8°C° 0 mm 1 mps 631 mmHg 95%
    06:00 +8°C° 0 mm 1 mps 632 mmHg 94%
    07:00 +9°C° 0 mm 1 mps 632 mmHg 90%
    08:00 +9°C° 0 mm 1 mps 632 mmHg 86%
    09:00 +10°C° 0 mm 1 mps 633 mmHg 82%
    10:00 +11°C° 0.1 mm 1 mps 633 mmHg 80%
    11:00 +10°C° 0.1 mm 2 mps 633 mmHg 78%
    12:00 +12°C° 0.1 mm 2 mps 633 mmHg 76%
    13:00 +12°C° 0.2 mm 2 mps 633 mmHg 77%
    14:00 +12°C° 0.2 mm 2 mps 633 mmHg 79%
    15:00 +12°C° 0.2 mm 1 mps 633 mmHg 80%
    16:00 +11°C° 0.2 mm 1 mps 632 mmHg 83%
    17:00 +11°C° 0.2 mm 1 mps 632 mmHg 86%
    18:00 +10°C° 0.2 mm 1 mps 632 mmHg 89%
    19:00 +10°C° 0.1 mm 1 mps 632 mmHg 91%
    20:00 +9°C° 0.1 mm 1 mps 632 mmHg 92%
    21:00 +8°C° 0.1 mm 1 mps 632 mmHg 94%
    22:00 +7°C° 0 mm 0 mps 632 mmHg 94%
    23:00 +7°C° 0 mm 0 mps 633 mmHg 95%
    Show more